Time,TemperatureF,DewpointF,PressureIn,WindDirection,WindDirectionDegrees,WindSpeedMPH,WindSpeedGustMPH,Humidity,HourlyPrecipIn,Conditions,Clouds,dailyrainin,SoftwareType,DateUTC
2013-10-21 00:14:00,34.0,32.0,30.00,North,0,0.0,0.0,94,0.00,,,0.04,,2013-10-21 04:14:00,
2013-10-21 00:24:00,33.0,32.0,30.01,North,0,0.0,0.0,95,0.00,,,0.02,,2013-10-21 04:24:00,
2013-10-21 00:44:00,33.0,32.0,30.01,North,0,0.0,0.0,95,0.00,,,0.01,,2013-10-21 04:44:00,
2013-10-21 00:53:00,33.0,32.0,30.01,North,0,0.0,0.0,95,0.00,,,0.01,,2013-10-21 04:53:00,
2013-10-21 01:23:00,34.0,33.0,30.01,North,0,0.0,0.0,96,0.00,,,0.00,,2013-10-21 05:23:00,
2013-10-21 01:43:00,35.0,34.0,30.01,North,0,0.0,0.0,97,0.00,,,0.00,,2013-10-21 05:43:00,
2013-10-21 01:52:00,35.0,34.0,30.02,North,0,0.0,0.0,97,0.00,,,0.00,,2013-10-21 05:52:00,
2013-10-21 02:02:00,35.0,34.0,30.02,North,0,0.0,0.0,97,0.00,,,0.00,,2013-10-21 06:02:00,
2013-10-21 02:22:00,35.0,34.0,30.03,North,0,0.0,0.0,97,0.00,,,0.00,,2013-10-21 06:22:00,
2013-10-21 02:32:00,35.0,34.0,30.03,North,0,0.0,0.0,97,0.00,,,0.00,,2013-10-21 06:32:00,
2013-10-21 02:42:00,35.0,34.0,30.03,North,0,0.0,0.0,97,0.00,,,0.00,,2013-10-21 06:42:00,
2013-10-21 02:52:00,35.0,34.0,30.02,North,0,0.0,0.0,97,0.00,,,0.00,,2013-10-21 06:52:00,
2013-10-21 03:22:00,34.0,33.0,30.03,North,0,0.0,0.0,96,0.00,,,0.00,,2013-10-21 07:22:00,
2013-10-21 03:42:00,34.0,33.0,30.03,North,0,0.0,0.0,96,0.00,,,0.00,,2013-10-21 07:42:00,
2013-10-21 03:52:00,33.0,32.0,30.03,North,0,0.0,0.0,95,0.00,,,0.00,,2013-10-21 07:52:00,
2013-10-21 04:22:00,32.0,31.0,30.04,North,0,0.0,0.0,96,0.00,,,0.00,,2013-10-21 08:22:00,
2013-10-21 04:52:00,32.0,31.0,30.05,North,0,0.0,0.0,95,0.00,,,0.00,,2013-10-21 08:52:00,
2013-10-21 05:22:00,31.0,30.0,30.05,North,0,0.0,0.0,96,0.00,,,0.00,,2013-10-21 09:22:00,
2013-10-21 05:42:00,30.0,29.0,30.06,North,0,0.0,0.0,96,0.00,,,0.00,,2013-10-21 09:42:00,
2013-10-21 05:54:00,30.0,29.0,30.06,North,0,0.0,0.0,96,0.00,,,0.00,,2013-10-21 09:54:00,
2013-10-21 06:13:00,30.0,29.0,30.06,North,0,0.0,0.0,96,0.00,,,0.00,,2013-10-21 10:13:00,
2013-10-21 06:23:00,30.0,29.0,30.06,North,0,0.0,0.0,96,0.00,,,0.00,,2013-10-21 10:23:00,
2013-10-21 06:33:00,30.0,29.0,30.06,North,0,0.0,0.0,96,0.00,,,0.00,,2013-10-21 10:33:00,
2013-10-21 06:53:00,30.0,29.0,30.06,North,0,0.0,0.0,96,0.00,,,0.00,,2013-10-21 10:53:00,
2013-10-21 07:03:00,30.0,29.0,30.06,North,0,0.0,0.0,96,0.00,,,0.00,,2013-10-21 11:03:00,
2013-10-21 07:22:00,30.0,29.0,30.07,North,0,0.0,0.0,97,0.00,,,0.00,,2013-10-21 11:22:00,
2013-10-21 07:42:00,30.0,29.0,30.07,North,0,0.0,0.0,97,0.00,,,0.00,,2013-10-21 11:42:00,
2013-10-21 07:52:00,30.0,29.0,30.08,North,0,0.0,0.0,97,0.00,,,0.00,,2013-10-21 11:52:00,
2013-10-21 08:22:00,30.0,29.0,30.08,North,0,0.0,0.0,97,0.00,,,0.00,,2013-10-21 12:22:00,
2013-10-21 08:42:00,30.0,29.0,30.09,North,0,0.0,1.0,98,0.00,,,0.00,,2013-10-21 12:42:00,
2013-10-21 08:52:00,32.0,32.0,30.09,North,0,0.0,1.0,99,0.00,,,0.00,,2013-10-21 12:52:00,
2013-10-21 09:11:00,33.0,33.0,30.09,North,0,0.0,1.0,99,0.00,,,0.00,,2013-10-21 13:11:00,
2013-10-21 09:22:00,35.0,35.0,30.10,North,0,0.0,1.0,100,0.00,,,0.00,,2013-10-21 13:22:00,
2013-10-21 09:42:00,35.0,35.0,30.10,North,0,0.0,1.0,100,0.00,,,0.00,,2013-10-21 13:42:00,
2013-10-21 09:52:00,37.0,37.0,30.09,North,0,0.0,1.0,100,0.00,,,0.00,,2013-10-21 13:52:00,
2013-10-21 10:22:00,40.0,38.0,30.09,North,0,0.0,2.0,94,0.00,,,0.00,,2013-10-21 14:22:00,
2013-10-21 10:42:00,42.0,40.0,30.09,North,0,0.0,2.0,92,0.00,,,0.00,,2013-10-21 14:42:00,
2013-10-21 10:52:00,43.0,39.0,30.09,North,0,0.0,2.0,86,0.00,,,0.00,,2013-10-21 14:52:00,
2013-10-21 11:21:00,48.0,40.0,30.08,SW,214,1.0,6.0,73,0.00,,,0.00,,2013-10-21 15:21:00,
2013-10-21 11:54:00,52.0,41.0,30.07,North,0,0.0,5.0,65,0.00,,,0.00,,2013-10-21 15:54:00,
2013-10-21 12:23:00,54.0,41.0,30.06,North,0,0.0,4.0,62,0.00,,,0.00,,2013-10-21 16:23:00,
2013-10-21 12:43:00,55.0,43.0,30.05,North,0,0.0,6.0,65,0.00,,,0.00,,2013-10-21 16:43:00,
2013-10-21 12:54:00,56.0,42.0,30.05,SE,131,1.0,6.0,59,0.00,,,0.00,,2013-10-21 16:54:00,
2013-10-21 13:22:00,58.0,41.0,30.03,North,0,0.0,7.0,54,0.00,,,0.00,,2013-10-21 17:22:00,
2013-10-21 13:43:00,59.0,43.0,30.02,North,0,0.0,6.0,55,0.00,,,0.00,,2013-10-21 17:43:00,
2013-10-21 13:53:00,59.0,43.0,30.02,North,0,0.0,6.0,55,0.00,,,0.00,,2013-10-21 17:53:00,
2013-10-21 14:12:00,60.0,43.0,30.00,SE,125,2.0,6.0,53,0.00,,,0.00,,2013-10-21 18:12:00,
2013-10-21 14:22:00,60.0,45.0,30.00,North,0,0.0,5.0,57,0.00,,,0.00,,2013-10-21 18:22:00,
2013-10-21 14:42:00,61.0,45.0,29.99,South,182,2.0,6.0,55,0.00,,,0.00,,2013-10-21 18:42:00,
2013-10-21 14:52:00,61.0,45.0,29.99,East,101,2.0,9.0,56,0.00,,,0.00,,2013-10-21 18:52:00,
2013-10-21 15:22:00,61.0,43.0,29.98,South,169,1.0,10.0,51,0.00,,,0.00,,2013-10-21 19:22:00,
2013-10-21 15:52:00,61.0,46.0,29.98,SSW,198,3.0,7.0,57,0.00,,,0.00,,2013-10-21 19:52:00,
2013-10-21 16:22:00,60.0,46.0,29.98,SE,143,1.0,7.0,59,0.00,,,0.00,,2013-10-21 20:22:00,
2013-10-21 17:54:00,58.0,47.0,29.97,North,0,0.0,9.0,66,0.00,,,0.00,,2013-10-21 21:54:00,
2013-10-21 18:24:00,56.0,45.0,29.97,North,0,0.0,5.0,67,0.00,,,0.00,,2013-10-21 22:24:00,
2013-10-21 19:22:00,52.0,45.0,29.98,North,0,0.0,1.0,76,0.00,,,0.00,,2013-10-21 23:22:00,
2013-10-21 19:53:00,50.0,43.0,29.98,North,0,0.0,2.0,78,0.00,,,0.00,,2013-10-21 23:53:00,
2013-10-21 20:22:00,49.0,44.0,29.98,North,0,0.0,2.0,82,0.00,,,0.00,,2013-10-22 00:22:00,
2013-10-21 20:53:00,48.0,43.0,29.98,North,0,0.0,14.0,84,0.00,,,0.00,,2013-10-22 00:53:00,
2013-10-21 21:22:00,48.0,42.0,29.97,SSE,157,1.0,4.0,81,0.00,,,0.00,,2013-10-22 01:22:00,
2013-10-21 21:52:00,49.0,43.0,29.98,North,0,0.0,8.0,79,0.00,,,0.00,,2013-10-22 01:52:00,
2013-10-21 22:22:00,48.0,41.0,29.97,ESE,104,3.0,17.0,78,0.00,,,0.00,,2013-10-22 02:22:00,
2013-10-21 22:52:00,48.0,42.0,29.97,North,0,0.0,3.0,80,0.00,,,0.00,,2013-10-22 02:52:00,
2013-10-21 23:23:00,47.0,41.0,29.96,North,0,0.0,5.0,80,0.00,,,0.00,,2013-10-22 03:23:00,
2013-10-21 23:55:00,46.0,41.0,29.96,North,0,0.0,3.0,83,0.00,,,0.00,,2013-10-22 03:55:00,